Dewpoint
-31 -34 -35 -34 -34 -33 -31 -30 -29 -29 -31 -33 -34 -35 -34 -34 -34 -32 -31 -30 -28 -20 -23 -23 -22 -20 -17 -18 -16 -19 -15 -19 -17 -16 -17 -18 -18 -19 -19 -20 -19 -20 -17 -18 -18 -17 -15 -19 -22 -19 -18 -20 -20 -20
-31 -33 -34 -34 -32 -30 -30 -29 -29 -28 -26 -26 -27 -29 -32 -34 -33 -33 -30 -26 -25 -24 -23 -23 -23 -23 -24 -22 -17 -17 -17 -17 -17 -15 -17 -20 -20 -21 -19 -19 -22 -22 -19 -18 -19 -18 -18 -19 -19 -22 -24 -19 -20 -20
-33 -33 -34 -32 -31 -30 -29 -29 -29 -28 -28 -28 -28 -27 -25 -28 -31 -31 -32 -31 -29 -24 -18 -20 -23 -23 -23 -25 -26 -15 -18 -21 -20 -20 -18 -19 -18 -20 -17 -15 -16 -19 -22 -19 -19 -19 -21 -20 -19 -22 -22 -20 -20 -20
-35 -34 -32 -31 -30 -31 -30 -30 -30 -29 -27 -27 -27 -27 -27 -25 -27 -30 -29 -30 -30 -25 -17 -21 -24 -25 -24 -23 -23 -26 -26 -26 -24 -17 -17 -16 -17 -21 -18 -17 -16 -17 -19 -18 -19 -20 -22 -25 -27 -26 -23 -21 -21 -20
-35 -34 -33 -33 -32 -32 -32 -32 -31 -30 -28 -27 -26 -26 -26 -27 -25 -27 -28 -25 -29 -20 -16 -18 -22 -23 -25 -24 -23 -21 -23 -21 -15 -16 -16 -17 -19 -18 -21 -18 -13 -14 -13 -14 -13 -17 -20 -20 -21 -21 -20 -22 -23 -21
-35 -35 -34 -34 -33 -33 -31 -29 -29 -28 -28 -28 -27 -25 -25 -26 -25 -23 -18 -21 -27 -29 -16 -17 -24 -23 -22 -25 -24 -23 -21 -19 -16 -15 -16 -17 -21 -17 -13 -12 -13 -12 -13 -14 -15 -14 -15 -16 -17 -19 -21 -18 -19 -20
-33 -33 -32 -32 -31 -29 -28 -28 -27 -26 -25 -26 -26 -25 -23 -25 -24 -23 -20 -20 -26 -27 -15 -16 -17 -19 -20 -23 -23 -22 -21 -21 -17 -15 -16 -16 -16 -17 -13 -13 -13 -13 -13 -13 -13 -14 -15 -15 -15 -15 -15 -15 -16 -17
-33 -33 -32 -30 -29 -29 -29 -28 -28 -26 -24 -24 -26 -24 -23 -21 -22 -21 -21 -20 -22 -20 -19 -12 -15 -16 -18 -19 -17 -22 -15 -14 -20 -15 -16 -15 -16 -15 -13 -13 -13 -14 -14 -14 -13 -14 -14 -14 -14 -14 -14 -14 -15 -15
-32 -29 -27 -27 -27 -27 -26 -27 -27 -25 -24 -26 -24 -22 -21 -21 -20 -20 -20 -19 -20 -20 -13 -14 -14 -13 -17 -19 -18 -16 -17 -15 -19 -17 -16 -17 -14 -12 -13 -12 -13 -13 -14 -14 -15 -15 -15 -14 -14 -14 -14 -14 -15 -15
-27 -26 -26 -27 -25 -24 -23 -26 -25 -25 -26 -25 -22 -22 -22 -23 -22 -21 -21 -21 -21 -20 -18 -16 -18 -15 -17 -18 -17 -17 -16 -17 -13 -17 -19 -15 -11 -12 -12 -13 -13 -14 -14 -15 -14 -15 -15 -15 -15 -15 -15 -15 -15 -15
-28 -27 -27 -28 -25 -24 -24 -24 -23 -23 -24 -24 -22 -23 -23 -21 -22 -21 -19 -16 -15 -13 -15 -16 -17 -17 -17 -17 -17 -18 -17 -18 -14 -16 -17 -15 -11 -12 -13 -14 -14 -15 -15 -15 -15 -16 -15 -15 -15 -15 -15 -16 -16 -15
-27 -26 -27 -25 -24 -24 -24 -23 -22 -24 -24 -23 -24 -24 -22 -21 -21 -14 -12 -15 -14 -13 -14 -15 -16 -17 -17 -18 -17 -17 -16 -16 -13 -19 -15 -10 -11 -13 -14 -14 -15 -15 -15 -16 -15 -16 -16 -16 -16 -16 -16 -16 -16 -16
-27 -27 -27 -27 -26 -25 -24 -21 -22 -23 -24 -24 -23 -23 -22 -21 -12 -13 -12 -13 -12 -14 -14 -15 -16 -17 -17 -17 -17 -17 -14 -12 -18 -13 -12 -12 -14 -14 -14 -15 -15 -15 -16 -16 -16 -16 -17 -17 -17 -17 -17 -17 -16 -16
-28 -28 -27 -28 -26 -23 -23 -25 -25 -26 -26 -24 -22 -14 -10 -11 -13 -13 -14 -14 -14 -16 -15 -16 -16 -17 -16 -16 -17 -12 -14 -16 -12 -13 -16 -14 -15 -15 -15 -15 -15 -16 -16 -17 -17 -18 -18 -18 -18 -17 -18 -18 -18 -17
-28 -28 -25 -26 -23 -22 -21 -21 -22 -23 -24 -24 -22 -11 -12 -20 -19 -18 -17 -16 -14 -16 -16 -16 -16 -17 -16 -15 -15 -13 -13 -14 -12 -15 -14 -15 -15 -15 -15 -16 -16 -16 -17 -17 -18 -18 -18 -18 -18 -18 -18 -18 -18 -18
-25 -25 -23 -23 -22 -22 -22 -23 -22 -21 -24 -24 -23 -16 -21 -14 -13 -14 -16 -14 -16 -16 -16 -16 -15 -13 -13 -14 -13 -12 -14 -14 -14 -15 -15 -15 -15 -16 -16 -16 -17 -17 -17 -18 -18 -18 -18 -18 -19 -19 -18 -18 -18 -18
-25 -24 -23 -23 -24 -23 -24 -23 -22 -24 -26 -24 -19 -20 -20 -19 -17 -16 -16 -15 -16 -15 -14 -13 -13 -13 -14 -14 -14 -14 -14 -13 -14 -14 -15 -16 -16 -16 -16 -17 -17 -17 -19 -18 -18 -18 -19 -19 -19 -19 -19 -19 -19 -18
-29 -29 -28 -27 -25 -26 -24 -24 -24 -26 -22 -20 -13 -19 -20 -19 -17 -16 -15 -15 -15 -15 -14 -13 -14 -14 -14 -14 -16 -16 -15 -15 -15 -15 -15 -15 -16 -17 -17 -17 -18 -20 -18 -18 -18 -19 -19 -19 -19 -20 -20 -20 -20 -20
-30 -30 -29 -29 -28 -28 -25 -25 -25 -23 -19 -19 -18 -18 -20 -19 -19 -16 -16 -16 -15 -14 -14 -13 -15 -14 -15 -16 -14 -15 -15 -15 -15 -15 -16 -17 -18 -17 -17 -17 -20 -18 -18 -19 -19 -19 -19 -19 -20 -20 -21 -20 -20 -21
-31 -31 -30 -29 -29 -28 -26 -24 -23 -24 -19 -19 -18 -18 -19 -19 -18 -17 -16 -16 -16 -14 -13 -13 -13 -13 -13 -14 -15 -16 -16 -16 -16 -16 -17 -18 -17 -17 -17 -18 -18 -19 -19 -19 -19 -18 -19 -19 -20 -21 -21 -20 -21 -22
-31 -31 -31 -31 -30 -30 -27 -24 -23 -21 -20 -19 -19 -17 -17 -19 -21 -19 -15 -15 -15 -13 -13 -13 -13 -13 -14 -15 -19 -19 -19 -18 -18 -17 -18 -17 -17 -20 -20 -19 -19 -19 -19 -20 -20 -20 -19 -20 -20 -20 -21 -21 -22 -22
-31 -32 -31 -30 -30 -28 -26 -24 -24 -22 -21 -22 -19 -18 -20 -20 -21 -21 -17 -13 -12 -13 -13 -14 -14 -14 -15 -19 -20 -20 -18 -22 -26 -23 -19 -18 -19 -18 -18 -19 -19 -20 -20 -20 -20 -20 -20 -20 -20 -21 -21 -22 -23 -24
-31 -31 -31 -30 -29 -27 -26 -25 -24 -25 -21 -23 -22 -20 -21 -21 -22 -19 -18 -12 -12 -12 -14 -14 -15 -15 -17 -21 -22 -22 -21 -22 -23 -21 -20 -19 -19 -19 -19 -20 -20 -20 -20 -20 -20 -20 -20 -21 -22 -22 -22 -23 -23 -24
-31 -31 -31 -30 -27 -26 -26 -25 -24 -24 -23 -22 -19 -17 -20 -23 -23 -18 -13 -13 -12 -13 -14 -16 -17 -17 -20 -17 -16 -18 -21 -22 -22 -24 -22 -19 -19 -20 -19 -20 -20 -20 -21 -21 -21 -20 -21 -22 -22 -23 -23 -23 -24 -24
-26 -26 -27 -25 -26 -25 -22 -21 -22 -21 -17 -21 -18 -17 -21 -24 -16 -15 -12 -11 -13 -15 -16 -16 -15 -23 -19 -17 -19 -24 -26 -25 -24 -26 -25 -21 -20 -20 -20 -20 -21 -21 -21 -21 -21 -21 -22 -23 -23 -24 -23 -24 -24 -24
-23 -27 -25 -25 -24 -21 -21 -16 -18 -19 -21 -19 -21 -23 -22 -17 -13 -11 -12 -12 -13 -14 -14 -14 -22 -26 -25 -21 -20 -23 -26 -26 -27 -26 -25 -23 -21 -20 -20 -21 -21 -21 -20 -20 -21 -23 -23 -24 -24 -24 -24 -25 -25 -26
-19 -25 -25 -25 -24 -23 -22 -23 -24 -22 -19 -19 -20 -20 -13 -12 -12 -14 -17 -13 -13 -13 -13 -23 -30 -25 -24 -26 -27 -27 -26 -26 -26 -23 -22 -22 -21 -20 -21 -21 -21 -20 -20 -22 -23 -23 -24 -24 -24 -24 -25 -25 -26 -26
-27 -26 -24 -25 -25 -26 -24 -25 -24 -22 -23 -24 -21 -17 -13 -12 -13 -20 -21 -14 -12 -13 -17 -33 -30 -28 -28 -28 -28 -28 -25 -23 -21 -22 -23 -22 -21 -20 -21 -20 -20 -21 -22 -23 -23 -24 -24 -24 -24 -25 -26 -26 -26 -26
-27 -27 -25 -25 -25 -27 -27 -26 -25 -25 -24 -24 -23 -22 -16 -16 -18 -21 -22 -13 -13 -14 -23 -35 -30 -28 -28 -27 -28 -27 -24 -21 -20 -22 -22 -21 -22 -21 -20 -20 -21 -23 -24 -23 -24 -24 -24 -24 -25 -25 -26 -27 -27 -27
-26 -27 -25 -26 -28 -26 -27 -27 -26 -24 -23 -22 -22 -22 -22 -22 -21 -23 -18 -14 -14 -14 -27 -34 -30 -27 -27 -26 -27 -27 -25 -25 -24 -22 -20 -20 -20 -20 -20 -21 -23 -24 -22 -23 -24 -25 -25 -25 -26 -26 -27 -27 -27 -27
-26 -27 -26 -25 -26 -26 -26 -26 -25 -24 -23 -22 -21 -21 -23 -20 -19 -20 -14 -14 -13 -17 -34 -34 -30 -27 -27 -26 -27 -27 -27 -27 -25 -23 -22 -20 -21 -20 -21 -23 -25 -22 -22 -23 -24 -25 -25 -25 -26 -27 -27 -27 -27 -28
-27 -27 -27 -26 -25 -27 -27 -28 -28 -25 -22 -20 -22 -23 -18 -15 -16 -16 -13 -13 -14 -23 -35 -33 -28 -27 -27 -26 -27 -27 -26 -26 -24 -23 -21 -20 -21 -20 -22 -26 -22 -21 -22 -23 -24 -25 -25 -25 -26 -27 -27 -27 -28 -28
-27 -28 -28 -28 -28 -28 -27 -27 -26 -26 -26 -25 -26 -23 -15 -15 -18 -13 -15 -13 -14 -27 -36 -31 -28 -27 -26 -26 -27 -27 -27 -26 -23 -23 -23 -21 -21 -21 -25 -27 -22 -20 -22 -23 -24 -24 -25 -25 -26 -27 -27 -27 -28 -28
Wind_Speed
18 19 20 20 19 21 22 23 25 24 23 21 24 26 25 23 22 22 21 17 28 15 13 15 15 8 7 7 5 11 6 6 8 7 5 4 6 5 2 2 6 9 7 6 5 4 5 6 6 4 2 4 4 4
18 18 18 18 19 19 20 20 22 21 23 25 24 21 20 22 22 17 19 22 26 20 10 17 19 21 19 11 6 9 3 3 6 2 4 3 5 4 3 5 2 5 4 3 4 3 2 5 4 5 5 6 6 7
17 17 17 18 16 15 15 18 18 18 19 20 22 23 22 16 14 18 16 8 7 9 11 11 10 17 24 20 13 4 4 6 5 5 4 2 7 4 5 6 4 3 2 3 5 3 5 6 7 9 8 10 10 11
18 17 17 15 12 10 10 13 14 17 18 19 19 20 18 17 12 9 16 15 6 5 3 3 14 14 16 21 17 11 4 5 7 5 6 4 3 5 3 2 4 3 4 4 4 3 13 6 9 11 12 13 15 15
17 16 12 8 7 5 7 8 11 15 17 17 17 14 14 13 15 9 7 16 10 3 3 3 5 18 10 11 15 18 10 7 4 4 5 3 3 1 0 2 6 2 4 4 4 7 6 15 13 18 20 21 19 19
12 8 4 3 4 6 8 10 13 15 16 16 16 15 12 11 15 8 6 9 10 2 2 2 2 9 13 5 7 13 12 13 7 5 4 3 2 1 4 4 13 14 14 13 8 15 22 27 25 19 18 19 19 21
5 4 4 5 7 9 10 12 14 16 16 14 14 10 10 9 12 9 7 13 8 3 2 2 1 8 21 12 6 7 9 8 5 3 4 2 1 2 3 8 24 24 21 20 19 17 18 11 17 25 27 25 25 26
2 4 6 9 12 13 13 12 13 14 12 10 9 6 5 9 8 9 11 16 10 5 6 3 5 4 20 8 6 11 6 4 8 3 2 3 1 2 3 17 17 24 23 15 18 24 27 28 26 24 24 24 25 26
4 6 7 10 13 15 14 11 9 11 7 6 5 6 5 9 7 7 8 9 13 11 5 5 7 5 15 8 6 6 5 2 3 3 3 3 1 4 8 22 20 26 22 26 29 26 22 23 28 29 26 26 27 30
7 7 11 15 16 14 7 4 5 5 5 5 7 5 5 9 8 7 7 7 8 9 7 5 4 4 10 8 4 9 4 2 1 2 5 2 2 2 11 29 20 30 29 28 26 28 29 29 28 30 29 28 28 32
10 8 13 19 18 13 10 8 7 4 5 5 4 5 6 13 9 7 8 9 8 4 7 5 6 8 8 4 4 5 3 3 2 3 3 1 1 11 27 32 29 31 32 29 26 27 27 26 28 30 31 30 30 30
11 11 15 22 20 14 11 9 9 10 8 9 8 9 9 9 9 7 4 5 6 5 9 9 12 5 4 4 3 4 3 2 3 6 2 2 3 24 34 34 33 32 32 33 29 30 30 28 27 28 31 31 31 29
13 14 15 17 22 22 13 10 8 7 7 8 5 6 8 10 8 6 9 4 7 10 8 16 8 5 4 3 4 3 3 3 4 1 4 2 23 34 35 35 34 32 32 31 31 29 28 28 27 25 28 28 28 29
11 13 15 15 19 22 22 16 8 8 7 7 7 7 5 5 5 3 5 8 9 12 17 14 5 3 3 3 2 4 3 2 5 5 5 10 32 37 36 35 34 37 35 34 32 31 30 31 30 27 26 26 25 25
10 10 12 13 16 16 22 24 23 15 7 6 6 5 4 2 4 10 13 12 10 16 12 5 4 2 2 2 2 4 7 6 4 6 9 31 38 37 37 36 36 35 36 34 32 32 32 30 29 31 29 27 26 27
10 10 12 13 12 11 12 14 14 14 8 7 8 5 4 2 8 14 17 13 21 16 5 3 3 3 5 4 6 5 8 4 7 16 32 36 37 38 37 36 35 34 35 32 31 31 30 31 31 32 30 27 28 29
4 7 8 9 9 7 12 7 7 8 6 5 5 10 10 8 8 13 15 19 20 12 7 4 5 5 5 4 5 3 5 9 29 33 33 33 36 38 37 37 36 37 35 31 33 32 31 30 30 30 29 30 30 30
2 4 6 5 5 7 10 10 5 5 7 6 4 8 11 8 8 16 18 19 14 11 6 3 4 4 4 6 5 12 27 28 28 30 33 35 36 34 35 36 39 36 34 34 31 30 30 31 30 31 31 30 31 30
6 4 4 4 5 3 3 5 5 5 5 7 8 8 8 8 7 10 21 19 13 12 5 6 4 4 4 10 23 29 29 29 32 35 34 34 32 34 36 37 36 34 35 34 30 29 29 29 29 30 32 28 32 29
5 6 6 7 4 3 4 5 5 5 4 4 5 6 6 6 11 13 11 18 16 6 7 8 4 11 17 23 25 26 27 29 30 34 35 35 35 35 35 35 34 36 35 32 29 27 29 31 28 33 29 28 34 27
4 7 6 4 8 8 6 5 6 6 5 5 6 4 3 2 3 7 14 8 12 6 6 10 20 25 23 22 22 23 24 25 29 29 33 37 38 38 37 36 34 34 31 31 31 31 30 30 33 37 31 28 31 31
4 5 5 6 5 5 7 10 5 4 4 4 4 4 3 2 4 6 5 7 3 11 15 20 27 29 28 26 27 25 26 30 32 33 29 31 36 37 37 36 35 35 33 31 30 32 34 29 39 34 29 32 27 33
4 4 5 6 4 5 4 6 4 5 3 3 3 3 4 3 5 5 3 5 5 16 24 27 34 31 29 27 29 29 29 31 34 34 35 34 33 33 33 34 31 32 34 33 35 35 29 40 36 30 31 30 30 30
5 4 5 6 9 4 3 5 5 5 4 5 5 2 4 5 6 3 3 6 17 26 29 36 39 38 33 28 27 31 32 34 35 37 35 31 35 39 35 34 32 32 31 34 36 30 40 37 31 33 31 27 31 29
4 9 6 7 8 4 6 5 6 5 3 5 3 3 4 6 3 3 3 7 21 27 33 35 38 35 30 30 33 35 34 36 37 42 40 37 35 36 37 35 34 33 33 36 30 45 38 33 36 32 26 29 30 30
8 10 6 7 6 4 4 3 3 4 3 3 3 3 4 3 3 3 10 23 22 27 32 34 35 33 34 31 33 35 36 35 36 40 41 39 34 33 36 38 40 43 37 32 48 37 35 37 32 31 29 30 32 29
5 6 6 6 4 3 4 4 4 3 3 3 3 4 3 3 2 3 14 24 26 27 33 33 31 31 32 34 33 32 34 33 35 37 42 39 34 30 28 36 40 39 41 47 35 35 36 33 32 31 30 34 29 24
5 4 3 4 3 5 3 3 2 2 1 2 2 2 3 3 3 4 16 30 32 30 34 34 29 29 30 33 34 37 37 36 37 40 43 38 36 36 37 39 34 39 42 36 31 31 29 30 32 30 30 28 25 22
5 3 3 3 3 4 4 2 1 1 1 1 0 1 1 3 9 10 17 31 28 32 36 36 33 34 35 36 37 39 38 39 41 49 51 50 52 50 46 40 46 49 41 38 33 27 27 28 28 26 26 28 28 25
3 5 2 2 2 2 2 2 1 1 1 1 0 2 4 6 9 10 19 29 29 34 37 37 34 34 37 38 42 44 41 40 40 39 40 42 44 45 44 46 48 42 39 35 34 35 30 31 31 31 30 31 30 28
2 3 2 2 2 2 2 1 1 2 2 2 1 3 5 7 6 10 23 26 28 33 37 36 34 34 37 38 41 45 47 43 40 37 36 35 39 41 44 44 41 39 37 35 34 33 34 33 33 33 33 32 30 28
2 3 2 2 1 1 2 2 0 1 1 1 1 2 5 6 6 12 24 25 28 33 36 33 33 35 34 35 35 36 36 37 37 39 38 36 37 38 40 39 39 36 36 34 34 35 34 32 34 34 34 33 30 31
1 2 3 2 1 1 2 3 1 1 1 1 1 1 6 8 4 8 23 22 27 32 35 32 31 32 33 36 37 38 37 35 36 36 37 35 33 34 36 38 38 36 35 34 36 36 34 33 35 35 34 32 30 31
Wind_Direction
117 113 108 99 91 80 73 66 61 54 50 47 48 48 48 47 46 44 69 74 84 95 61 50 40 25 351 350 343 331 307 18 358 40 27 22 30 29 342 47 346 5 340 18 358 61 49 1 306 329 348 259 245 266
120 117 110 100 91 82 73 66 61 55 53 50 46 39 35 39 45 41 69 67 75 82 81 51 39 31 25 9 335 0 55 352 7 336 42 49 34 23 276 34 16 16 16 337 17 23 325 297 265 278 295 276 285 283
122 117 112 104 93 82 73 62 53 46 40 36 34 32 27 23 31 39 43 50 60 77 65 37 18 30 33 28 27 7 40 20 21 67 34 60 72 318 17 25 309 119 156 307 309 172 272 269 264 268 271 270 274 275
122 119 111 104 97 76 62 50 39 31 25 20 15 10 13 18 16 23 34 42 57 94 85 51 29 30 29 31 34 36 28 37 54 41 57 47 69 3 44 9 9 3 286 337 260 264 308 280 282 290 288 288 283 283
117 112 111 109 77 39 14 359 2 6 4 5 7 0 359 9 12 15 23 31 28 89 92 132 32 26 18 29 36 41 38 53 36 50 46 58 62 296 87 250 26 346 340 336 309 315 271 288 298 300 296 294 290 283
108 122 106 44 352 335 330 332 340 338 340 346 354 358 10 16 14 20 4 2 10 73 120 165 157 17 19 11 19 35 42 45 57 61 78 75 48 355 18 11 23 352 307 296 267 293 291 297 297 297 288 300 297 287
113 72 20 333 315 310 321 327 327 327 326 329 345 3 23 27 25 51 61 6 23 57 61 104 112 359 11 25 7 17 21 39 57 77 57 49 66 270 40 14 340 336 332 315 306 302 304 315 303 306 304 305 298 292
54 360 313 306 301 306 307 310 318 323 318 322 343 12 28 25 35 44 40 26 20 52 56 34 335 312 9 356 1 1 356 17 31 69 59 5 257 250 28 349 341 346 337 326 326 309 304 304 305 313 309 306 299 298
347 336 344 347 336 315 303 300 311 328 336 343 1 38 38 20 23 21 29 36 36 52 82 58 354 337 344 8 348 341 355 20 20 39 38 313 141 48 327 338 327 347 334 321 328 328 323 314 313 314 314 311 304 307
68 25 12 359 351 348 344 342 348 4 22 51 47 41 33 1 18 28 26 20 28 37 51 76 353 330 336 339 0 348 7 30 2 32 325 274 60 352 360 352 334 339 335 335 324 325 323 315 313 312 309 308 301 304
34 47 32 24 22 34 55 49 32 31 55 50 56 59 32 32 32 33 28 29 357 43 17 2 13 336 343 340 330 6 332 336 311 35 330 10 105 349 350 347 340 338 340 334 329 324 319 313 310 309 308 306 305 304
63 59 44 37 38 44 46 49 47 60 74 78 95 72 34 33 27 41 13 5 17 3 353 353 339 330 320 340 306 340 313 277 359 332 281 5 25 350 345 342 340 338 336 333 331 327 326 322 318 313 311 312 312 309
61 51 44 44 43 43 39 40 52 72 77 64 53 52 25 20 33 29 356 337 327 350 359 335 327 331 323 334 290 310 320 358 304 271 8 8 347 341 339 337 335 336 336 334 330 329 326 325 323 321 316 320 320 317
59 53 46 50 46 40 36 41 56 66 56 54 48 33 40 22 30 349 313 308 308 313 325 326 304 317 321 315 316 310 15 283 358 341 355 338 335 332 333 333 333 333 335 333 334 333 332 331 332 332 329 326 322 320
59 56 53 59 57 61 62 59 57 63 57 67 60 59 65 59 1 339 339 337 333 329 330 328 291 312 323 310 348 327 352 353 11 337 319 325 326 328 329 331 330 331 331 332 334 333 332 335 337 334 335 335 333 329
79 80 65 63 70 82 65 52 59 55 48 57 56 86 102 67 10 360 354 348 347 351 3 353 309 341 36 335 1 19 339 316 327 320 319 320 322 324 326 326 328 327 328 332 333 333 333 338 336 331 332 330 332 332
112 81 65 67 62 36 17 38 44 48 57 64 72 94 98 82 39 9 4 354 360 8 9 346 25 0 290 344 349 359 342 316 312 313 314 316 318 319 322 324 327 329 334 332 334 337 335 337 336 335 332 335 337 337
243 282 305 302 312 341 30 44 64 68 70 87 90 99 84 91 65 30 18 15 13 8 11 27 349 10 357 329 312 319 314 311 309 310 312 315 319 320 324 323 327 333 333 329 334 335 339 338 331 336 332 335 335 333
53 34 21 14 3 31 54 43 48 85 81 90 97 117 102 77 63 45 32 22 20 26 34 8 16 353 338 310 312 312 313 316 316 316 315 318 319 323 327 325 332 329 328 329 328 328 330 336 331 327 336 331 334 331
40 34 40 39 38 70 72 45 53 76 84 82 91 111 129 99 64 47 36 33 25 33 30 2 334 308 313 315 316 313 314 319 319 318 316 321 326 325 323 326 327 329 328 327 327 328 325 326 333 333 331 330 332 329
39 48 55 86 59 61 66 52 56 66 86 81 94 87 98 127 30 35 33 40 38 23 353 330 324 324 324 327 330 331 328 327 322 318 314 317 327 328 333 334 330 328 327 327 325 326 329 325 328 334 327 327 335 322
65 68 63 56 64 70 57 35 66 64 72 86 70 68 78 44 14 6 5 41 37 7 350 338 338 342 339 344 345 347 339 336 338 338 335 329 326 328 329 328 327 326 327 327 327 326 326 327 330 330 328 327 327 330
86 66 57 41 68 53 59 36 48 36 63 43 42 58 36 25 6 359 46 17 344 347 349 345 350 350 345 348 350 351 346 340 339 340 338 331 329 326 325 330 332 329 328 329 332 325 324 328 334 332 327 331 327 333
71 58 42 45 34 62 47 44 36 34 51 35 21 47 8 352 354 40 26 3 349 347 348 352 351 347 347 347 341 343 348 345 342 343 346 335 331 334 338 337 336 334 332 328 327 330 326 332 332 331 332 329 336 333
70 20 34 30 29 42 41 28 19 42 50 5 21 18 352 357 28 23 343 325 342 342 347 347 348 348 345 341 344 350 352 348 345 344 354 345 338 338 341 340 335 335 338 338 337 329 335 333 331 337 332 335 335 333
69 28 42 22 19 42 24 52 35 18 13 25 26 348 7 32 41 357 341 335 336 341 349 350 345 346 352 353 345 350 351 350 348 348 353 355 353 345 334 333 334 337 348 339 330 339 334 333 342 342 333 336 338 336
70 32 44 35 43 66 75 63 50 44 43 23 348 7 35 44 312 320 339 353 348 350 354 353 355 353 350 351 352 353 353 353 352 349 351 353 355 353 343 336 334 339 335 332 345 337 334 343 344 337 338 336 344 347
75 51 64 21 61 55 90 71 43 61 14 7 29 30 140 191 252 286 349 355 354 355 353 359 357 355 354 356 356 356 358 356 353 350 352 359 358 358 351 348 346 336 338 346 343 340 346 348 338 342 339 347 353 358
51 26 67 75 80 66 49 64 73 58 31 57 19 243 255 255 295 292 339 347 351 352 354 356 0 360 359 357 0 3 3 2 353 352 353 353 354 354 354 349 336 342 347 350 353 351 352 346 347 345 347 354 354 355
42 30 76 67 70 71 46 73 117 137 134 89 359 311 316 324 327 324 340 348 350 352 354 360 0 357 358 357 356 1 8 5 359 353 348 348 344 344 345 337 342 347 353 356 0 2 358 354 2 3 360 359 3 355
49 35 75 76 99 107 47 20 284 244 240 250 281 321 336 332 335 346 345 349 350 351 357 358 0 2 360 0 359 357 358 1 356 354 354 352 348 348 338 343 347 354 357 3 4 3 0 4 6 0 359 358 360 1
43 37 73 118 134 13 19 2 298 221 244 246 293 336 358 338 335 337 347 347 349 352 357 358 358 1 2 1 360 360 358 353 355 359 357 354 350 345 344 352 357 357 3 5 8 7 6 8 8 3 1 358 5 1
75 45 66 95 103 115 347 352 112 159 151 139 131 117 20 353 334 335 342 349 351 351 353 357 0 359 360 2 1 360 358 359 3 2 2 358 356 354 356 360 1 1 6 8 12 7 7 11 12 8 3 7 9 2
Height
1522 1523 1523 1527 1527 1524 1522 1519 1515 1516 1512 1511 1507 1503 1501 1499 1495 1494 1492 1490 1487 1493 1503 1501 1499 1496 1492 1490 1483 1475 1468 1468 1465 1461 1461 1470 1471 1480 1474 1493 1491 1478 1474 1462 1445 1447 1467 1482 1478 1475 1483 1481 1480 1478
1525 1526 1526 1530 1529 1529 1527 1524 1520 1519 1518 1514 1510 1507 1506 1504 1501 1500 1496 1496 1492 1494 1505 1503 1500 1497 1495 1493 1489 1485 1486 1486 1484 1473 1477 1473 1478 1479 1489 1475 1488 1483 1498 1491 1488 1481 1486 1484 1484 1483 1482 1480 1477 1476
1530 1530 1532 1529 1533 1534 1531 1527 1524 1523 1520 1517 1513 1511 1509 1507 1506 1504 1500 1498 1497 1500 1505 1505 1504 1502 1497 1493 1491 1491 1488 1487 1486 1485 1486 1487 1492 1493 1482 1493 1488 1495 1501 1491 1489 1486 1484 1483 1482 1480 1479 1478 1477 1475
1533 1534 1534 1534 1535 1536 1535 1529 1527 1525 1522 1519 1516 1514 1512 1510 1507 1505 1502 1500 1500 1501 1504 1510 1506 1503 1501 1498 1495 1493 1491 1490 1489 1489 1489 1491 1492 1501 1498 1502 1496 1500 1498 1496 1486 1483 1479 1478 1478 1477 1475 1474 1472 1471
1536 1535 1538 1538 1536 1538 1534 1532 1529 1525 1523 1521 1519 1517 1514 1511 1508 1504 1503 1503 1502 1504 1504 1508 1508 1505 1503 1502 1499 1496 1493 1492 1492 1492 1494 1500 1503 1503 1504 1503 1494 1499 1497 1492 1485 1486 1486 1479 1476 1474 1471 1469 1467 1465
1537 1541 1540 1538 1538 1536 1535 1531 1527 1526 1523 1521 1520 1517 1515 1512 1508 1505 1505 1505 1504 1503 1506 1505 1509 1507 1505 1503 1502 1499 1497 1495 1494 1497 1501 1504 1505 1505 1497 1494 1500 1498 1495 1492 1488 1483 1480 1475 1472 1469 1466 1465 1462 1459
1542 1539 1539 1539 1537 1535 1532 1529 1527 1525 1523 1522 1520 1518 1516 1513 1511 1510 1513 1511 1506 1505 1507 1507 1508 1508 1506 1504 1502 1501 1500 1499 1498 1501 1504 1505 1505 1506 1500 1500 1501 1496 1492 1488 1483 1480 1475 1471 1467 1464 1461 1458 1456 1453
1542 1539 1541 1538 1536 1532 1529 1528 1526 1524 1523 1521 1520 1518 1517 1515 1514 1513 1512 1510 1507 1507 1508 1513 1513 1510 1509 1508 1506 1504 1503 1502 1502 1505 1506 1507 1506 1505 1501 1505 1500 1495 1489 1484 1482 1477 1472 1467 1462 1459 1456 1452 1448 1445
1541 1540 1539 1537 1532 1529 1526 1524 1525 1524 1522 1521 1520 1518 1518 1517 1516 1516 1514 1513 1513 1514 1517 1525 1528 1517 1515 1514 1512 1509 1507 1504 1507 1508 1509 1510 1501 1504 1506 1501 1496 1492 1488 1482 1475 1471 1466 1461 1457 1453 1450 1447 1442 1437
1542 1542 1539 1536 1531 1525 1523 1524 1524 1523 1522 1521 1520 1520 1521 1522 1518 1518 1516 1517 1515 1519 1524 1532 1534 1528 1527 1520 1516 1514 1511 1511 1505 1513 1511 1507 1502 1507 1505 1502 1495 1491 1485 1479 1472 1465 1461 1457 1454 1449 1445 1441 1437 1432
1543 1543 1541 1537 1531 1527 1526 1526 1525 1523 1522 1522 1523 1525 1526 1523 1522 1522 1524 1526 1528 1530 1534 1535 1534 1534 1529 1528 1524 1523 1518 1514 1505 1513 1510 1504 1503 1507 1504 1499 1494 1488 1482 1477 1472 1467 1461 1456 1450 1444 1438 1435 1431 1426
1546 1544 1542 1538 1534 1531 1530 1528 1526 1525 1524 1524 1526 1528 1527 1528 1530 1533 1538 1538 1539 1540 1541 1538 1538 1535 1533 1530 1529 1524 1521 1517 1507 1517 1510 1499 1507 1506 1502 1496 1491 1485 1478 1472 1467 1461 1455 1450 1445 1439 1433 1428 1423 1419
1548 1546 1543 1541 1538 1535 1532 1530 1528 1527 1527 1527 1529 1532 1537 1544 1548 1553 1556 1549 1547 1547 1545 1543 1541 1537 1535 1533 1531 1529 1517 1513 1518 1508 1505 1508 1507 1504 1499 1493 1487 1482 1476 1470 1463 1458 1452 1445 1440 1435 1428 1423 1417 1412
1550 1548 1547 1544 1542 1539 1536 1532 1530 1529 1529 1532 1537 1547 1552 1559 1564 1565 1564 1559 1556 1550 1547 1544 1542 1540 1536 1534 1532 1524 1522 1522 1510 1508 1508 1509 1508 1503 1498 1492 1485 1477 1472 1466 1459 1453 1447 1441 1435 1430 1425 1419 1413 1408
1552 1551 1550 1548 1546 1544 1541 1538 1535 1533 1534 1539 1546 1559 1566 1569 1568 1565 1562 1557 1555 1550 1546 1543 1541 1541 1537 1534 1533 1528 1524 1520 1519 1519 1517 1513 1508 1502 1495 1488 1482 1475 1469 1462 1455 1449 1443 1437 1431 1425 1420 1415 1410 1405
1554 1554 1553 1550 1549 1548 1547 1544 1543 1542 1544 1550 1558 1566 1569 1569 1568 1565 1562 1559 1553 1548 1545 1546 1544 1538 1541 1544 1536 1538 1536 1530 1527 1525 1520 1513 1505 1499 1493 1486 1479 1473 1466 1459 1453 1447 1441 1434 1428 1422 1417 1412 1407 1401
1556 1556 1555 1553 1552 1551 1549 1546 1546 1548 1553 1561 1568 1569 1570 1571 1572 1569 1565 1561 1556 1552 1551 1549 1548 1550 1550 1545 1543 1542 1541 1539 1532 1524 1519 1513 1505 1496 1489 1482 1476 1469 1462 1455 1450 1443 1437 1431 1425 1419 1412 1406 1402 1396
1556 1556 1555 1554 1553 1552 1552 1550 1552 1557 1563 1568 1570 1572 1572 1573 1573 1571 1568 1564 1561 1557 1556 1559 1558 1556 1555 1554 1548 1545 1542 1537 1531 1523 1516 1508 1500 1494 1487 1478 1471 1465 1458 1452 1446 1440 1434 1428 1422 1415 1409 1403 1398 1392
1557 1556 1555 1554 1554 1553 1554 1556 1558 1562 1569 1571 1573 1574 1575 1575 1575 1574 1572 1568 1565 1563 1562 1563 1563 1564 1562 1559 1553 1546 1539 1533 1525 1517 1511 1504 1498 1490 1482 1476 1468 1461 1455 1448 1442 1437 1432 1427 1421 1414 1407 1401 1395 1389
1558 1557 1557 1556 1554 1555 1557 1561 1563 1565 1570 1574 1575 1576 1576 1577 1577 1576 1575 1573 1569 1568 1569 1570 1569 1566 1562 1556 1551 1544 1537 1531 1524 1514 1505 1498 1493 1486 1479 1471 1464 1457 1450 1444 1439 1435 1428 1422 1417 1410 1403 1398 1391 1385
1559 1559 1558 1558 1557 1558 1562 1565 1567 1570 1573 1575 1578 1578 1578 1579 1579 1578 1577 1575 1575 1576 1575 1573 1568 1563 1558 1552 1546 1540 1534 1529 1522 1515 1504 1494 1488 1482 1474 1468 1462 1455 1448 1442 1435 1429 1424 1418 1412 1405 1399 1393 1388 1382
1560 1560 1560 1559 1560 1563 1568 1571 1572 1574 1575 1577 1578 1579 1580 1580 1580 1580 1579 1578 1579 1579 1577 1571 1565 1558 1551 1547 1541 1536 1530 1523 1517 1510 1503 1496 1485 1477 1470 1465 1458 1451 1445 1439 1433 1427 1420 1415 1409 1401 1395 1389 1384 1378
1561 1561 1561 1563 1564 1568 1577 1575 1575 1576 1577 1580 1581 1582 1583 1583 1583 1582 1582 1582 1581 1578 1574 1569 1562 1556 1550 1544 1538 1532 1527 1520 1512 1505 1497 1490 1485 1477 1470 1463 1457 1449 1441 1435 1430 1423 1417 1412 1403 1397 1391 1385 1379 1373
1562 1563 1565 1567 1571 1576 1577 1578 1579 1580 1582 1583 1584 1585 1586 1585 1584 1583 1583 1583 1582 1577 1572 1565 1558 1550 1545 1540 1535 1528 1523 1516 1508 1501 1497 1488 1479 1471 1467 1460 1454 1448 1442 1433 1426 1419 1413 1404 1399 1392 1386 1381 1375 1370
1566 1575 1576 1577 1579 1579 1581 1583 1584 1584 1589 1589 1588 1588 1588 1587 1587 1588 1588 1585 1581 1576 1571 1565 1559 1552 1545 1538 1533 1527 1521 1514 1505 1497 1492 1486 1478 1470 1463 1457 1451 1445 1437 1428 1421 1415 1405 1400 1394 1387 1382 1378 1372 1367
1575 1583 1583 1584 1586 1585 1588 1589 1591 1593 1592 1591 1592 1591 1591 1591 1592 1592 1590 1586 1581 1576 1570 1564 1557 1548 1543 1539 1532 1525 1519 1513 1506 1497 1490 1484 1476 1469 1459 1451 1444 1437 1433 1428 1419 1408 1402 1396 1389 1384 1379 1373 1368 1362
1585 1589 1589 1590 1590 1590 1591 1593 1593 1593 1594 1595 1594 1592 1592 1596 1595 1592 1590 1586 1579 1575 1571 1565 1556 1550 1544 1537 1532 1526 1519 1512 1506 1498 1488 1481 1475 1468 1462 1454 1444 1437 1432 1423 1414 1408 1400 1393 1387 1382 1376 1371 1365 1360
1589 1591 1591 1593 1591 1592 1592 1594 1594 1595 1596 1596 1596 1596 1596 1595 1595 1592 1589 1585 1580 1574 1569 1563 1557 1551 1545 1538 1530 1523 1514 1507 1499 1492 1486 1479 1472 1465 1460 1453 1446 1439 1429 1419 1413 1405 1399 1393 1387 1381 1374 1369 1363 1359
1591 1592 1592 1592 1592 1593 1594 1595 1596 1596 1597 1596 1596 1595 1595 1594 1592 1590 1588 1584 1578 1573 1567 1560 1553 1547 1541 1535 1528 1520 1511 1503 1494 1483 1474 1468 1460 1456 1453 1449 1441 1432 1423 1416 1409 1404 1399 1393 1386 1380 1374 1368 1362 1357
1593 1592 1592 1592 1593 1595 1596 1596 1596 1596 1596 1596 1596 1595 1595 1593 1592 1590 1588 1582 1577 1571 1565 1558 1552 1545 1538 1530 1522 1516 1512 1505 1499 1492 1482 1474 1467 1460 1453 1446 1437 1428 1421 1414 1407 1400 1395 1389 1383 1376 1372 1367 1361 1357
1592 1592 1592 1593 1594 1596 1596 1596 1596 1596 1596 1596 1596 1595 1594 1593 1591 1590 1586 1581 1577 1571 1564 1557 1552 1545 1538 1530 1522 1514 1507 1504 1499 1494 1487 1478 1471 1462 1454 1445 1436 1427 1420 1413 1407 1401 1395 1388 1382 1376 1371 1366 1361 1356
1593 1593 1593 1594 1595 1596 1595 1595 1595 1595 1595 1595 1595 1595 1594 1592 1591 1589 1586 1580 1575 1570 1565 1559 1552 1545 1540 1534 1529 1522 1515 1508 1500 1490 1482 1476 1470 1463 1453 1445 1435 1428 1420 1414 1408 1402 1396 1390 1384 1378 1372 1367 1360 1355
1592 1593 1593 1594 1594 1594 1595 1595 1595 1595 1595 1595 1595 1595 1594 1593 1591 1588 1584 1579 1575 1569 1563 1558 1554 1548 1542 1535 1528 1521 1515 1507 1499 1492 1484 1478 1471 1463 1452 1444 1436 1429 1421 1414 1408 1403 1397 1391 1385 1379 1373 1367 1361 1357